Time,TemperatureF,DewpointF,PressureIn,WindDirection,WindDirectionDegrees,WindSpeedMPH,WindSpeedGustMPH,Humidity,HourlyPrecipIn,Conditions,Clouds,dailyrainin,SoftwareType,DateUTC
2013-05-19 00:03:00,59.8,28.3,29.63,NW,311,5.0,7.0,30,0.00,,,0.00,Wunderground v.1.15,2013-05-19 06:03:00,
2013-05-19 00:08:00,59.3,28.6,29.63,NW,322,4.0,13.0,31,0.00,,,0.00,Wunderground v.1.15,2013-05-19 06:08:00,
2013-05-19 00:13:00,59.0,28.4,29.64,NNW,331,5.0,8.0,31,0.00,,,0.00,Wunderground v.1.15,2013-05-19 06:13:00,
2013-05-19 00:19:00,58.9,29.1,29.64,NNW,336,4.0,8.0,32,0.00,,,0.00,Wunderground v.1.15,2013-05-19 06:19:00,
2013-05-19 00:24:00,58.6,29.6,29.64,North,5,4.0,6.0,33,0.00,,,0.00,Wunderground v.1.15,2013-05-19 06:24:00,
2013-05-19 00:29:00,58.1,29.1,29.64,North,5,6.0,6.0,33,0.00,,,0.00,Wunderground v.1.15,2013-05-19 06:29:00,
2013-05-19 00:34:00,57.8,29.6,29.64,North,5,0.0,5.0,34,0.00,,,0.00,Wunderground v.1.15,2013-05-19 06:34:00,
2013-05-19 00:39:00,57.5,29.3,29.64,North,5,1.0,5.0,34,0.00,,,0.00,Wunderground v.1.15,2013-05-19 06:39:00,
2013-05-19 00:44:00,57.2,29.8,29.63,North,5,4.0,5.0,35,0.00,,,0.00,Wunderground v.1.15,2013-05-19 06:44:00,
2013-05-19 00:49:00,57.0,29.6,29.63,North,5,7.0,7.0,35,0.00,,,0.00,Wunderground v.1.15,2013-05-19 06:49:00,
2013-05-19 00:54:00,56.9,29.5,29.63,North,5,4.0,7.0,35,0.00,,,0.00,Wunderground v.1.15,2013-05-19 06:54:00,
2013-05-19 00:59:00,56.9,29.5,29.64,North,5,2.0,7.0,35,0.00,,,0.00,Wunderground v.1.15,2013-05-19 06:59:00,
2013-05-19 01:05:00,56.9,29.5,29.64,North,5,2.0,4.0,35,0.00,,,0.00,Wunderground v.1.15,2013-05-19 07:05:00,
2013-05-19 01:10:00,56.7,30.7,29.63,North,5,1.0,1.0,37,0.00,,,0.00,Wunderground v.1.15,2013-05-19 07:10:00,
2013-05-19 01:16:00,56.3,31.6,29.63,North,5,2.0,4.0,39,0.00,,,0.00,Wunderground v.1.15,2013-05-19 07:16:00,
2013-05-19 01:21:00,55.7,31.7,29.63,North,5,4.0,4.0,40,0.00,,,0.00,Wunderground v.1.15,2013-05-19 07:21:00,
2013-05-19 01:27:00,54.8,32.1,29.64,North,5,3.0,4.0,42,0.00,,,0.00,Wunderground v.1.15,2013-05-19 07:27:00,
2013-05-19 01:33:00,54.2,32.2,29.64,North,5,2.0,2.0,43,0.00,,,0.00,Wunderground v.1.15,2013-05-19 07:33:00,
2013-05-19 01:38:00,53.8,32.4,29.64,North,5,2.0,4.0,44,0.00,,,0.00,Wunderground v.1.15,2013-05-19 07:38:00,
2013-05-19 01:43:00,53.3,32.5,29.65,North,5,0.0,2.0,45,0.00,,,0.00,Wunderground v.1.15,2013-05-19 07:43:00,
2013-05-19 01:48:00,52.9,32.1,29.65,North,5,0.0,3.0,45,0.00,,,0.00,Wunderground v.1.15,2013-05-19 07:48:00,
2013-05-19 01:53:00,52.8,32.0,29.65,North,5,0.0,1.0,45,0.00,,,0.00,Wunderground v.1.15,2013-05-19 07:53:00,
2013-05-19 01:59:00,52.5,32.3,29.64,North,5,0.0,3.0,46,0.00,,,0.00,Wunderground v.1.15,2013-05-19 07:59:00,
2013-05-19 02:04:00,52.0,32.4,29.64,North,5,1.0,3.0,47,0.00,,,0.00,Wunderground v.1.15,2013-05-19 08:04:00,
2013-05-19 02:09:00,51.7,32.6,29.64,North,5,3.0,4.0,48,0.00,,,0.00,Wunderground v.1.15,2013-05-19 08:09:00,
2013-05-19 02:14:00,51.4,32.9,29.65,North,5,0.0,4.0,49,0.00,,,0.00,Wunderground v.1.15,2013-05-19 08:14:00,
2013-05-19 02:19:00,51.3,32.8,29.65,North,5,0.0,4.0,49,0.00,,,0.00,Wunderground v.1.15,2013-05-19 08:19:00,
2013-05-19 02:24:00,51.1,32.6,29.65,North,5,0.0,1.0,49,0.00,,,0.00,Wunderground v.1.15,2013-05-19 08:24:00,
2013-05-19 02:29:00,51.0,32.5,29.65,North,5,1.0,2.0,49,0.00,,,0.00,Wunderground v.1.15,2013-05-19 08:29:00,
2013-05-19 02:34:00,51.1,32.6,29.65,North,5,2.0,3.0,49,0.00,,,0.00,Wunderground v.1.15,2013-05-19 08:34:00,
2013-05-19 02:39:00,51.3,32.3,29.65,North,5,1.0,3.0,48,0.00,,,0.00,Wunderground v.1.15,2013-05-19 08:39:00,
2013-05-19 02:44:00,51.7,32.6,29.66,North,5,0.0,2.0,48,0.00,,,0.00,Wunderground v.1.15,2013-05-19 08:44:00,
2013-05-19 02:49:00,51.9,32.3,29.66,North,5,2.0,3.0,47,0.00,,,0.00,Wunderground v.1.15,2013-05-19 08:49:00,
2013-05-19 02:54:00,52.0,31.8,29.66,North,5,0.0,1.0,46,0.00,,,0.00,Wunderground v.1.15,2013-05-19 08:54:00,
2013-05-19 02:59:00,52.0,32.4,29.65,North,5,0.0,2.0,47,0.00,,,0.00,Wunderground v.1.15,2013-05-19 08:59:00,
2013-05-19 03:04:00,52.0,31.8,29.65,North,5,0.0,0.0,46,0.00,,,0.00,Wunderground v.1.15,2013-05-19 09:04:00,
2013-05-19 03:09:00,52.0,31.8,29.65,North,5,0.0,2.0,46,0.00,,,0.00,Wunderground v.1.15,2013-05-19 09:09:00,
2013-05-19 03:14:00,52.2,31.5,29.65,North,5,0.0,1.0,45,0.00,,,0.00,Wunderground v.1.15,2013-05-19 09:14:00,
2013-05-19 03:19:00,52.2,31.5,29.65,North,5,0.0,1.0,45,0.00,,,0.00,Wunderground v.1.15,2013-05-19 09:19:00,
2013-05-19 03:24:00,52.5,31.8,29.65,North,5,0.0,5.0,45,0.00,,,0.00,Wunderground v.1.15,2013-05-19 09:24:00,
2013-05-19 03:29:00,52.5,32.3,29.64,North,5,6.0,6.0,46,0.00,,,0.00,Wunderground v.1.15,2013-05-19 09:29:00,
2013-05-19 03:34:00,52.9,31.6,29.64,NNW,336,1.0,11.0,44,0.00,,,0.00,Wunderground v.1.15,2013-05-19 09:34:00,
2013-05-19 03:39:00,53.9,30.1,29.64,NNW,339,7.0,16.0,40,0.00,,,0.00,Wunderground v.1.15,2013-05-19 09:39:00,
2013-05-19 03:44:00,55.0,30.5,29.64,North,355,9.0,15.0,39,0.00,,,0.00,Wunderground v.1.15,2013-05-19 09:44:00,
2013-05-19 03:49:00,55.6,29.7,29.64,NW,325,6.0,16.0,37,0.00,,,0.00,Wunderground v.1.15,2013-05-19 09:49:00,
2013-05-19 03:54:00,55.9,30.0,29.64,NW,324,5.0,10.0,37,0.00,,,0.00,Wunderground v.1.15,2013-05-19 09:54:00,
2013-05-19 03:59:00,55.9,31.3,29.64,NW,324,2.0,10.0,39,0.00,,,0.00,Wunderground v.1.15,2013-05-19 09:59:00,
2013-05-19 04:04:00,55.6,31.6,29.64,NW,325,1.0,4.0,40,0.00,,,0.00,Wunderground v.1.15,2013-05-19 10:04:00,
2013-05-19 04:09:00,55.4,31.5,29.64,NW,325,0.0,4.0,40,0.00,,,0.00,Wunderground v.1.15,2013-05-19 10:09:00,
2013-05-19 04:14:00,55.1,31.2,29.65,NW,324,0.0,3.0,40,0.00,,,0.00,Wunderground v.1.15,2013-05-19 10:14:00,
2013-05-19 04:19:00,54.8,30.9,29.65,NW,324,0.0,3.0,40,0.00,,,0.00,Wunderground v.1.15,2013-05-19 10:19:00,
2013-05-19 04:24:00,54.7,31.4,29.65,NW,325,0.0,3.0,41,0.00,,,0.00,Wunderground v.1.15,2013-05-19 10:24:00,
2013-05-19 04:29:00,54.5,31.3,29.64,NW,324,0.0,3.0,41,0.00,,,0.00,Wunderground v.1.15,2013-05-19 10:29:00,
2013-05-19 04:34:00,54.2,29.8,29.64,North,360,2.0,7.0,39,0.00,,,0.00,Wunderground v.1.15,2013-05-19 10:34:00,
2013-05-19 04:39:00,54.8,29.0,29.64,NW,323,7.0,15.0,37,0.00,,,0.00,Wunderground v.1.15,2013-05-19 10:39:00,
2013-05-19 04:44:00,55.4,27.5,29.63,NW,323,7.0,21.0,34,0.00,,,0.00,Wunderground v.1.15,2013-05-19 10:44:00,
2013-05-19 04:49:00,56.0,28.0,29.63,NNW,331,6.0,21.0,34,0.00,,,0.00,Wunderground v.1.15,2013-05-19 10:49:00,
2013-05-19 04:54:00,56.3,27.5,29.63,WNW,292,2.0,15.0,33,0.00,,,0.00,Wunderground v.1.15,2013-05-19 10:54:00,
2013-05-19 04:59:00,56.5,27.7,29.67,NW,309,3.0,15.0,33,0.00,,,0.00,Wunderground v.1.15,2013-05-19 10:59:00,
2013-05-19 05:04:00,56.6,27.0,29.67,West,279,3.0,16.0,32,0.00,,,0.00,Wunderground v.1.15,2013-05-19 11:04:00,
2013-05-19 05:09:00,56.9,26.5,29.67,WNW,286,8.0,21.0,31,0.00,,,0.00,Wunderground v.1.15,2013-05-19 11:09:00,
2013-05-19 05:14:00,57.0,26.6,29.67,NW,311,5.0,17.0,31,0.00,,,0.00,Wunderground v.1.15,2013-05-19 11:14:00,
2013-05-19 05:19:00,57.0,26.6,29.67,West,272,3.0,17.0,31,0.00,,,0.00,Wunderground v.1.15,2013-05-19 11:19:00,
2013-05-19 05:24:00,57.0,26.6,29.67,North,350,1.0,11.0,31,0.00,,,0.00,Wunderground v.1.15,2013-05-19 11:24:00,
2013-05-19 05:29:00,56.9,26.5,29.67,NNW,340,3.0,11.0,31,0.00,,,0.00,Wunderground v.1.15,2013-05-19 11:29:00,
2013-05-19 05:34:00,56.7,27.1,29.67,North,360,0.0,10.0,32,0.00,,,0.00,Wunderground v.1.15,2013-05-19 11:34:00,
2013-05-19 05:39:00,56.5,27.0,29.67,NW,326,10.0,13.0,32,0.00,,,0.00,Wunderground v.1.15,2013-05-19 11:39:00,
2013-05-19 05:44:00,56.5,27.0,29.67,NNE,14,4.0,13.0,32,0.00,,,0.00,Wunderground v.1.15,2013-05-19 11:44:00,
2013-05-19 05:49:00,56.3,26.8,29.67,NNE,12,3.0,13.0,32,0.00,,,0.00,Wunderground v.1.15,2013-05-19 11:49:00,
2013-05-19 05:54:00,56.3,26.8,29.67,NW,313,4.0,7.0,32,0.00,,,0.00,Wunderground v.1.15,2013-05-19 11:54:00,
2013-05-19 05:59:00,56.3,26.8,29.70,NW,323,9.0,10.0,32,0.00,,,0.00,Wunderground v.1.15,2013-05-19 11:59:00,
2013-05-19 06:04:00,56.3,27.5,29.70,NW,320,9.0,9.0,33,0.00,,,0.00,Wunderground v.1.15,2013-05-19 12:04:00,
2013-05-19 06:09:00,56.2,27.4,29.70,NW,322,0.0,13.0,33,0.00,,,0.00,Wunderground v.1.15,2013-05-19 12:09:00,
2013-05-19 06:14:00,56.2,27.4,29.70,WNW,302,6.0,15.0,33,0.00,,,0.00,Wunderground v.1.15,2013-05-19 12:14:00,
2013-05-19 06:19:00,56.3,27.5,29.70,NW,311,5.0,15.0,33,0.00,,,0.00,Wunderground v.1.15,2013-05-19 12:19:00,
2013-05-19 06:24:00,56.3,27.5,29.70,WNW,292,6.0,11.0,33,0.00,,,0.00,Wunderground v.1.15,2013-05-19 12:24:00,
2013-05-19 06:29:00,56.5,27.0,29.70,WNW,286,4.0,14.0,32,0.00,,,0.00,Wunderground v.1.15,2013-05-19 12:29:00,
2013-05-19 06:34:00,56.6,27.0,29.70,NW,306,6.0,11.0,32,0.00,,,0.00,Wunderground v.1.15,2013-05-19 12:34:00,
2013-05-19 06:39:00,56.7,27.1,29.70,WNW,296,5.0,13.0,32,0.00,,,0.00,Wunderground v.1.15,2013-05-19 12:39:00,
2013-05-19 06:44:00,56.9,27.3,29.69,WNW,285,6.0,14.0,32,0.00,,,0.00,Wunderground v.1.15,2013-05-19 12:44:00,
2013-05-19 06:50:00,56.9,27.3,29.69,NW,325,3.0,6.0,32,0.00,,,0.00,Wunderground v.1.15,2013-05-19 12:50:00,
2013-05-19 06:55:00,56.9,27.3,29.70,West,269,3.0,13.0,32,0.00,,,0.00,Wunderground v.1.15,2013-05-19 12:55:00,
2013-05-19 07:00:00,56.9,28.1,29.70,West,275,4.0,6.0,33,0.00,,,0.00,Wunderground v.1.15,2013-05-19 13:00:00,
2013-05-19 07:05:00,56.7,30.0,29.70,West,277,4.0,6.0,36,0.00,,,0.00,Wunderground v.1.15,2013-05-19 13:05:00,
2013-05-19 07:10:00,56.6,29.2,29.69,West,277,0.0,4.0,35,0.00,,,0.00,Wunderground v.1.15,2013-05-19 13:10:00,
2013-05-19 07:15:00,56.5,28.4,29.69,West,279,3.0,4.0,34,0.00,,,0.00,Wunderground v.1.15,2013-05-19 13:15:00,
2013-05-19 07:20:00,56.5,31.2,29.69,West,281,4.0,4.0,38,0.00,,,0.00,Wunderground v.1.15,2013-05-19 13:20:00,
2013-05-19 07:25:00,56.5,32.4,29.69,West,281,0.0,4.0,40,0.00,,,0.00,Wunderground v.1.15,2013-05-19 13:25:00,
2013-05-19 07:30:00,56.7,30.0,29.69,WNW,282,3.0,4.0,36,0.00,,,0.00,Wunderground v.1.15,2013-05-19 13:30:00,
2013-05-19 07:35:00,57.2,31.1,29.69,WNW,282,0.0,4.0,37,0.00,,,0.00,Wunderground v.1.15,2013-05-19 13:35:00,
2013-05-19 07:40:00,58.0,32.5,29.68,WNW,282,2.0,6.0,38,0.00,,,0.00,Wunderground v.1.15,2013-05-19 13:40:00,
2013-05-19 07:45:00,59.0,32.7,29.68,West,281,3.0,6.0,37,0.00,,,0.00,Wunderground v.1.15,2013-05-19 13:45:00,
2013-05-19 07:50:00,59.9,31.4,29.68,WNW,282,1.0,2.0,34,0.00,,,0.00,Wunderground v.1.15,2013-05-19 13:50:00,
2013-05-19 07:55:00,60.7,32.1,29.68,WNW,282,2.0,2.0,34,0.00,,,0.00,Wunderground v.1.15,2013-05-19 13:55:00,
2013-05-19 08:00:00,61.3,31.2,29.68,WNW,282,2.0,3.0,32,0.00,,,0.00,Wunderground v.1.15,2013-05-19 14:00:00,
2013-05-19 08:05:00,62.0,31.0,29.68,WNW,282,1.0,4.0,31,0.00,,,0.00,Wunderground v.1.15,2013-05-19 14:05:00,
2013-05-19 08:10:00,62.1,35.5,29.67,SE,144,1.0,2.0,37,0.00,,,0.00,Wunderground v.1.15,2013-05-19 14:10:00,
2013-05-19 08:15:00,61.8,33.8,29.67,SE,136,2.0,9.0,35,0.00,,,0.00,Wunderground v.1.15,2013-05-19 14:15:00,
2013-05-19 08:20:00,61.8,36.6,29.67,SE,136,2.0,2.0,39,0.00,,,0.00,Wunderground v.1.15,2013-05-19 14:20:00,
2013-05-19 08:25:00,61.6,35.7,29.67,SE,136,3.0,4.0,38,0.00,,,0.00,Wunderground v.1.15,2013-05-19 14:25:00,
2013-05-19 08:31:00,61.6,35.7,29.67,SSE,161,1.0,4.0,38,0.00,,,0.00,Wunderground v.1.15,2013-05-19 14:31:00,
2013-05-19 08:36:00,61.8,34.5,29.67,SSE,159,0.0,6.0,36,0.00,,,0.00,Wunderground v.1.15,2013-05-19 14:36:00,
2013-05-19 08:41:00,62.1,35.5,29.66,SSE,159,2.0,2.0,37,0.00,,,0.00,Wunderground v.1.15,2013-05-19 14:41:00,
2013-05-19 08:46:00,62.4,36.4,29.66,SSE,158,3.0,5.0,38,0.00,,,0.00,Wunderground v.1.15,2013-05-19 14:46:00,
2013-05-19 08:51:00,62.0,34.7,29.66,SE,142,6.0,6.0,36,0.00,,,0.00,Wunderground v.1.15,2013-05-19 14:51:00,
2013-05-19 08:56:00,62.0,36.1,29.65,SE,143,2.0,6.0,38,0.00,,,0.00,Wunderground v.1.15,2013-05-19 14:56:00,
2013-05-19 09:01:00,62.1,36.2,29.65,SE,145,6.0,11.0,38,0.00,,,0.00,Wunderground v.1.15,2013-05-19 15:01:00,
2013-05-19 09:06:00,62.1,35.5,29.65,SE,138,2.0,11.0,37,0.00,,,0.00,Wunderground v.1.15,2013-05-19 15:06:00,
2013-05-19 09:11:00,62.6,34.5,29.64,SSE,159,2.0,4.0,35,0.00,,,0.00,Wunderground v.1.15,2013-05-19 15:11:00,
2013-05-19 09:16:00,63.2,34.3,29.64,SSE,159,0.0,4.0,34,0.00,,,0.00,Wunderground v.1.15,2013-05-19 15:16:00,
2013-05-19 09:21:00,63.7,33.3,29.64,SSE,159,2.0,5.0,32,0.00,,,0.00,Wunderground v.1.15,2013-05-19 15:21:00,
2013-05-19 09:26:00,64.0,31.9,29.63,SSE,159,2.0,5.0,30,0.00,,,0.00,Wunderground v.1.15,2013-05-19 15:26:00,
2013-05-19 09:31:00,64.8,33.4,29.63,SSE,159,2.0,3.0,31,0.00,,,0.00,Wunderground v.1.15,2013-05-19 15:31:00,
2013-05-19 09:36:00,65.6,34.9,29.63,SSE,159,4.0,6.0,32,0.00,,,0.00,Wunderground v.1.15,2013-05-19 15:36:00,
2013-05-19 09:41:00,66.4,32.3,29.62,SE,146,1.0,9.0,28,0.00,,,0.00,Wunderground v.1.15,2013-05-19 15:41:00,
2013-05-19 09:46:00,67.3,32.1,29.62,SE,127,9.0,9.0,27,0.00,,,0.00,Wunderground v.1.15,2013-05-19 15:46:00,
2013-05-19 09:51:00,67.6,33.3,29.62,SSE,148,1.0,7.0,28,0.00,,,0.00,Wunderground v.1.15,2013-05-19 15:51:00,
2013-05-19 09:56:00,68.4,34.0,29.61,SE,144,1.0,7.0,28,0.00,,,0.00,Wunderground v.1.15,2013-05-19 15:56:00,
2013-05-19 10:01:00,68.8,33.4,29.61,SE,143,0.0,2.0,27,0.00,,,0.00,Wunderground v.1.15,2013-05-19 16:01:00,
2013-05-19 10:06:00,68.4,32.1,29.61,SE,142,2.0,3.0,26,0.00,,,0.00,Wunderground v.1.15,2013-05-19 16:06:00,
2013-05-19 10:11:00,68.3,33.0,29.61,SE,142,0.0,1.0,27,0.00,,,0.00,Wunderground v.1.15,2013-05-19 16:11:00,
2013-05-19 10:16:00,68.6,31.3,29.61,SE,142,2.0,3.0,25,0.00,,,0.00,Wunderground v.1.15,2013-05-19 16:16:00,
2013-05-19 10:21:00,69.1,31.8,29.61,SE,142,1.0,7.0,25,0.00,,,0.00,Wunderground v.1.15,2013-05-19 16:21:00,
2013-05-19 10:26:00,69.3,32.9,29.60,SE,145,2.0,7.0,26,0.00,,,0.00,Wunderground v.1.15,2013-05-19 16:26:00,
2013-05-19 10:31:00,69.4,32.0,29.60,SSE,148,2.0,5.0,25,0.00,,,0.00,Wunderground v.1.15,2013-05-19 16:31:00,
2013-05-19 10:36:00,69.1,31.8,29.60,SE,135,5.0,10.0,25,0.00,,,0.00,Wunderground v.1.15,2013-05-19 16:36:00,
2013-05-19 10:41:00,68.4,31.2,29.60,SE,135,1.0,4.0,25,0.00,,,0.00,Wunderground v.1.15,2013-05-19 16:41:00,
2013-05-19 10:46:00,67.9,31.7,29.60,SE,135,0.0,4.0,26,0.00,,,0.00,Wunderground v.1.15,2013-05-19 16:46:00,
2013-05-19 10:51:00,67.6,30.5,29.60,SE,135,2.0,6.0,25,0.00,,,0.00,Wunderground v.1.15,2013-05-19 16:51:00,
2013-05-19 10:57:00,67.1,30.1,29.62,SE,135,0.0,6.0,25,0.00,,,0.00,Wunderground v.1.15,2013-05-19 16:57:00,
2013-05-19 11:02:00,66.9,32.7,29.62,SE,135,0.0,4.0,28,0.00,,,0.00,Wunderground v.1.15,2013-05-19 17:02:00,
2013-05-19 11:07:00,66.8,31.7,29.62,SE,139,1.0,6.0,27,0.00,,,0.00,Wunderground v.1.15,2013-05-19 17:07:00,
2013-05-19 11:12:00,66.9,31.8,29.60,SE,140,2.0,6.0,27,0.00,,,0.00,Wunderground v.1.15,2013-05-19 17:12:00,
2013-05-19 11:17:00,67.4,29.3,29.60,SE,144,3.0,8.0,24,0.00,,,0.00,Wunderground v.1.15,2013-05-19 17:17:00,
2013-05-19 11:22:00,67.1,29.1,29.60,SE,137,1.0,3.0,24,0.00,,,0.00,Wunderground v.1.15,2013-05-19 17:22:00,
2013-05-19 11:27:00,66.6,29.6,29.61,SE,137,1.0,4.0,25,0.00,,,0.00,Wunderground v.1.15,2013-05-19 17:27:00,
2013-05-19 11:32:00,66.4,29.5,29.61,ESE,121,6.0,7.0,25,0.00,,,0.00,Wunderground v.1.15,2013-05-19 17:32:00,
2013-05-19 11:37:00,66.0,30.1,29.61,ESE,121,0.0,7.0,26,0.00,,,0.00,Wunderground v.1.15,2013-05-19 17:37:00,
2013-05-19 11:42:00,65.8,29.0,29.61,ESE,121,0.0,2.0,25,0.00,,,0.00,Wunderground v.1.15,2013-05-19 17:42:00,
2013-05-19 11:47:00,65.6,30.7,29.61,ESE,121,2.0,2.0,27,0.00,,,0.00,Wunderground v.1.15,2013-05-19 17:47:00,
2013-05-19 11:52:00,65.3,30.4,29.61,ESE,121,4.0,4.0,27,0.00,,,0.00,Wunderground v.1.15,2013-05-19 17:52:00,
2013-05-19 11:57:00,64.8,30.0,29.64,ESE,121,3.0,6.0,27,0.00,,,0.00,Wunderground v.1.15,2013-05-19 17:57:00,
2013-05-19 12:02:00,64.3,30.5,29.64,SE,124,3.0,4.0,28,0.00,,,0.00,Wunderground v.1.15,2013-05-19 18:02:00,
2013-05-19 12:07:00,64.0,29.3,29.64,SE,125,5.0,5.0,27,0.00,,,0.00,Wunderground v.1.15,2013-05-19 18:07:00,
2013-05-19 12:12:00,64.0,29.3,29.64,SE,136,0.0,4.0,27,0.00,,,0.00,Wunderground v.1.15,2013-05-19 18:12:00,
2013-05-19 12:17:00,64.2,29.5,29.64,SE,136,1.0,5.0,27,0.00,,,0.00,Wunderground v.1.15,2013-05-19 18:17:00,
2013-05-19 12:22:00,64.3,31.3,29.64,SSE,155,0.0,4.0,29,0.00,,,0.00,Wunderground v.1.15,2013-05-19 18:22:00,
2013-05-19 12:27:00,64.7,31.7,29.62,SSE,155,1.0,4.0,29,0.00,,,0.00,Wunderground v.1.15,2013-05-19 18:27:00,
2013-05-19 12:32:00,64.8,30.9,29.62,SSE,154,0.0,3.0,28,0.00,,,0.00,Wunderground v.1.15,2013-05-19 18:32:00,
2013-05-19 12:37:00,65.2,30.3,29.62,North,355,2.0,14.0,27,0.00,,,0.00,Wunderground v.1.15,2013-05-19 18:37:00,
2013-05-19 12:42:00,65.2,28.5,29.62,NNW,345,6.0,10.0,25,0.00,,,0.00,Wunderground v.1.15,2013-05-19 18:42:00,
2013-05-19 12:47:00,64.8,29.1,29.62,NNW,344,9.0,14.0,26,0.00,,,0.00,Wunderground v.1.15,2013-05-19 18:47:00,
2013-05-19 12:52:00,64.3,29.6,29.62,NNW,341,4.0,10.0,27,0.00,,,0.00,Wunderground v.1.15,2013-05-19 18:52:00,
2013-05-19 12:57:00,64.9,30.1,29.64,SSE,157,3.0,10.0,27,0.00,,,0.00,Wunderground v.1.15,2013-05-19 18:57:00,
2013-05-19 13:02:00,65.0,31.1,29.64,SSE,159,10.0,13.0,28,0.00,,,0.00,Wunderground v.1.15,2013-05-19 19:02:00,
2013-05-19 13:07:00,65.0,30.2,29.64,SSE,148,5.0,13.0,27,0.00,,,0.00,Wunderground v.1.15,2013-05-19 19:07:00,
2013-05-19 13:12:00,65.2,31.2,29.63,South,183,3.0,11.0,28,0.00,,,0.00,Wunderground v.1.15,2013-05-19 19:12:00,
2013-05-19 13:17:00,65.4,30.5,29.63,SSE,168,11.0,15.0,27,0.00,,,0.00,Wunderground v.1.15,2013-05-19 19:17:00,
2013-05-19 13:22:00,65.3,27.5,29.63,SSE,156,9.0,12.0,24,0.00,,,0.00,Wunderground v.1.15,2013-05-19 19:22:00,
2013-05-19 13:27:00,65.4,28.6,29.64,South,182,2.0,12.0,25,0.00,,,0.00,Wunderground v.1.15,2013-05-19 19:27:00,
2013-05-19 13:32:00,65.6,28.8,29.64,SSE,160,7.0,7.0,25,0.00,,,0.00,Wunderground v.1.15,2013-05-19 19:32:00,
2013-05-19 13:37:00,64.8,28.1,29.64,NW,311,3.0,10.0,25,0.00,,,0.00,Wunderground v.1.15,2013-05-19 19:37:00,
2013-05-19 13:42:00,65.3,26.5,29.63,NNW,328,4.0,11.0,23,0.00,,,0.00,Wunderground v.1.15,2013-05-19 19:42:00,
2013-05-19 13:48:00,65.6,26.8,29.63,NW,314,6.0,12.0,23,0.00,,,0.00,Wunderground v.1.15,2013-05-19 19:48:00,
2013-05-19 13:53:00,65.6,28.8,29.63,NNW,333,7.0,13.0,25,0.00,,,0.00,Wunderground v.1.15,2013-05-19 19:53:00,
2013-05-19 13:58:00,65.6,27.8,29.64,North,360,16.0,19.0,24,0.00,,,0.00,Wunderground v.1.15,2013-05-19 19:58:00,
2013-05-19 14:03:00,65.6,27.8,29.64,NNW,336,5.0,18.0,24,0.00,,,0.00,Wunderground v.1.15,2013-05-19 20:03:00,
2013-05-19 14:08:00,65.5,28.7,29.64,North,355,14.0,20.0,25,0.00,,,0.00,Wunderground v.1.15,2013-05-19 20:08:00,
2013-05-19 14:13:00,65.2,28.5,29.64,SW,229,1.0,10.0,25,0.00,,,0.00,Wunderground v.1.15,2013-05-19 20:13:00,
2013-05-19 14:18:00,65.0,30.2,29.64,SW,215,7.0,11.0,27,0.00,,,0.00,Wunderground v.1.15,2013-05-19 20:18:00,
2013-05-19 14:23:00,64.7,29.9,29.64,SSW,202,2.0,9.0,27,0.00,,,0.00,Wunderground v.1.15,2013-05-19 20:23:00,
2013-05-19 14:28:00,64.7,29.9,29.64,SSW,205,8.0,11.0,27,0.00,,,0.00,Wunderground v.1.15,2013-05-19 20:28:00,
2013-05-19 14:33:00,64.8,30.9,29.64,SSW,208,5.0,7.0,28,0.00,,,0.00,Wunderground v.1.15,2013-05-19 20:33:00,
2013-05-19 14:38:00,65.0,28.3,29.64,NW,317,5.0,14.0,25,0.00,,,0.00,Wunderground v.1.15,2013-05-19 20:38:00,
2013-05-19 14:43:00,65.2,28.5,29.64,NW,319,3.0,5.0,25,0.00,,,0.00,Wunderground v.1.15,2013-05-19 20:43:00,
2013-05-19 14:48:00,66.0,29.1,29.64,NNW,331,4.0,14.0,25,0.00,,,0.00,Wunderground v.1.15,2013-05-19 20:48:00,
2013-05-19 14:53:00,67.1,28.0,29.64,NW,315,11.0,19.0,23,0.00,,,0.00,Wunderground v.1.15,2013-05-19 20:53:00,
2013-05-19 14:58:00,67.8,28.6,29.61,NNW,336,6.0,19.0,23,0.00,,,0.00,Wunderground v.1.15,2013-05-19 20:58:00,
2013-05-19 15:03:00,68.1,28.9,29.61,NNW,344,10.0,15.0,23,0.00,,,0.00,Wunderground v.1.15,2013-05-19 21:03:00,
2013-05-19 15:09:00,69.3,29.9,29.61,SSW,213,13.0,15.0,23,0.00,,,0.00,Wunderground v.1.15,2013-05-19 21:09:00,
2013-05-19 15:14:00,69.3,29.9,29.60,SSE,151,3.0,11.0,23,0.00,,,0.00,Wunderground v.1.15,2013-05-19 21:14:00,
2013-05-19 15:19:00,69.3,30.9,29.60,SE,142,3.0,11.0,24,0.00,,,0.00,Wunderground v.1.15,2013-05-19 21:19:00,
2013-05-19 15:24:00,70.3,30.7,29.60,South,179,5.0,7.0,23,0.00,,,0.00,Wunderground v.1.15,2013-05-19 21:24:00,
2013-05-19 15:29:00,69.7,29.1,29.59,South,179,5.0,9.0,22,0.00,,,0.00,Wunderground v.1.15,2013-05-19 21:29:00,
2013-05-19 15:34:00,69.2,31.9,29.59,SSE,150,4.0,6.0,25,0.00,,,0.00,Wunderground v.1.15,2013-05-19 21:34:00,
2013-05-19 15:39:00,69.2,29.8,29.59,SSE,155,6.0,7.0,23,0.00,,,0.00,Wunderground v.1.15,2013-05-19 21:39:00,
2013-05-19 15:44:00,69.2,29.8,29.60,SSE,160,3.0,10.0,23,0.00,,,0.00,Wunderground v.1.15,2013-05-19 21:44:00,
2013-05-19 15:49:00,69.3,30.9,29.60,NW,306,17.0,17.0,24,0.00,,,0.00,Wunderground v.1.15,2013-05-19 21:49:00,
2013-05-19 15:54:00,69.6,27.9,29.60,NNW,332,13.0,22.0,21,0.00,,,0.00,Wunderground v.1.15,2013-05-19 21:54:00,
2013-05-19 15:59:00,69.6,31.2,29.59,North,350,15.0,22.0,24,0.00,,,0.00,Wunderground v.1.15,2013-05-19 21:59:00,
2013-05-19 16:04:00,69.6,30.1,29.59,North,355,21.0,21.0,23,0.00,,,0.00,Wunderground v.1.15,2013-05-19 22:04:00,
2013-05-19 16:09:00,69.3,27.7,29.59,WNW,298,10.0,23.0,21,0.00,,,0.00,Wunderground v.1.15,2013-05-19 22:09:00,
2013-05-19 16:14:00,68.8,28.4,29.59,NW,319,14.0,20.0,22,0.00,,,0.00,Wunderground v.1.15,2013-05-19 22:14:00,
2013-05-19 16:19:00,68.8,29.5,29.59,NNW,340,14.0,20.0,23,0.00,,,0.00,Wunderground v.1.15,2013-05-19 22:19:00,
2013-05-19 16:24:00,68.9,27.3,29.59,NW,313,10.0,18.0,21,0.00,,,0.00,Wunderground v.1.15,2013-05-19 22:24:00,
2013-05-19 16:29:00,68.9,28.5,29.59,North,11,14.0,18.0,22,0.00,,,0.00,Wunderground v.1.15,2013-05-19 22:29:00,
2013-05-19 16:34:00,69.1,28.6,29.59,WNW,298,8.0,19.0,22,0.00,,,0.00,Wunderground v.1.15,2013-05-19 22:34:00,
2013-05-19 16:39:00,68.8,29.5,29.59,West,279,11.0,19.0,23,0.00,,,0.00,Wunderground v.1.15,2013-05-19 22:39:00,
2013-05-19 16:44:00,68.3,29.0,29.59,West,271,16.0,22.0,23,0.00,,,0.00,Wunderground v.1.15,2013-05-19 22:44:00,
2013-05-19 16:49:00,67.3,29.2,29.59,WNW,291,10.0,22.0,24,0.00,,,0.00,Wunderground v.1.15,2013-05-19 22:49:00,
2013-05-19 16:54:00,67.1,30.1,29.59,North,355,16.0,18.0,25,0.00,,,0.00,Wunderground v.1.15,2013-05-19 22:54:00,
2013-05-19 16:59:00,67.1,30.1,29.59,North,355,13.0,20.0,25,0.00,,,0.00,Wunderground v.1.15,2013-05-19 22:59:00,
2013-05-19 17:04:00,66.9,29.9,29.59,NW,324,19.0,27.0,25,0.00,,,0.00,Wunderground v.1.15,2013-05-19 23:04:00,
2013-05-19 17:09:00,66.6,30.6,29.59,NW,325,13.0,27.0,26,0.00,,,0.00,Wunderground v.1.15,2013-05-19 23:09:00,
2013-05-19 17:14:00,66.6,30.6,29.60,WNW,303,19.0,20.0,26,0.00,,,0.00,Wunderground v.1.15,2013-05-19 23:14:00,
2013-05-19 17:19:00,66.0,29.1,29.60,NNW,330,13.0,21.0,25,0.00,,,0.00,Wunderground v.1.15,2013-05-19 23:19:00,
2013-05-19 17:24:00,65.6,28.8,29.60,NNW,335,15.0,21.0,25,0.00,,,0.00,Wunderground v.1.15,2013-05-19 23:24:00,
2013-05-19 17:29:00,66.0,29.1,29.62,NW,304,12.0,21.0,25,0.00,,,0.00,Wunderground v.1.15,2013-05-19 23:29:00,
2013-05-19 17:34:00,66.3,30.4,29.62,NW,325,6.0,18.0,26,0.00,,,0.00,Wunderground v.1.15,2013-05-19 23:34:00,
2013-05-19 17:39:00,66.6,31.5,29.62,NW,315,11.0,18.0,27,0.00,,,0.00,Wunderground v.1.15,2013-05-19 23:39:00,
2013-05-19 17:44:00,66.6,29.6,29.61,NW,315,11.0,15.0,25,0.00,,,0.00,Wunderground v.1.15,2013-05-19 23:44:00,
2013-05-19 17:49:00,66.3,30.4,29.61,NNW,335,15.0,15.0,26,0.00,,,0.00,Wunderground v.1.15,2013-05-19 23:49:00,
2013-05-19 17:54:00,65.6,28.8,29.61,NW,304,10.0,25.0,25,0.00,,,0.00,Wunderground v.1.15,2013-05-19 23:54:00,
2013-05-19 17:59:00,65.2,29.4,29.62,NNW,336,10.0,25.0,26,0.00,,,0.00,Wunderground v.1.15,2013-05-19 23:59:00,
2013-05-19 18:04:00,64.8,30.0,29.62,NNW,336,10.0,15.0,27,0.00,,,0.00,Wunderground v.1.15,2013-05-20 00:04:00,
2013-05-19 18:09:00,64.5,28.8,29.62,WNW,285,8.0,20.0,26,0.00,,,0.00,Wunderground v.1.15,2013-05-20 00:09:00,
2013-05-19 18:14:00,64.2,28.6,29.62,NW,311,6.0,15.0,26,0.00,,,0.00,Wunderground v.1.15,2013-05-20 00:14:00,
2013-05-19 18:19:00,64.0,28.4,29.62,WNW,297,8.0,15.0,26,0.00,,,0.00,Wunderground v.1.15,2013-05-20 00:19:00,
2013-05-19 18:24:00,63.7,29.1,29.62,NW,304,6.0,17.0,27,0.00,,,0.00,Wunderground v.1.15,2013-05-20 00:24:00,
2013-05-19 18:29:00,63.5,28.0,29.64,NW,319,7.0,17.0,26,0.00,,,0.00,Wunderground v.1.15,2013-05-20 00:29:00,
2013-05-19 18:34:00,63.4,27.9,29.64,WNW,292,9.0,21.0,26,0.00,,,0.00,Wunderground v.1.15,2013-05-20 00:34:00,
2013-05-19 18:39:00,63.2,29.5,29.64,NW,322,9.0,21.0,28,0.00,,,0.00,Wunderground v.1.15,2013-05-20 00:39:00,
2013-05-19 18:44:00,63.2,29.5,29.65,NNW,329,4.0,11.0,28,0.00,,,0.00,Wunderground v.1.15,2013-05-20 00:44:00,
2013-05-19 18:49:00,63.1,28.5,29.65,NW,310,4.0,15.0,27,0.00,,,0.00,Wunderground v.1.15,2013-05-20 00:49:00,
2013-05-19 18:54:00,62.9,29.3,29.65,NW,323,6.0,9.0,28,0.00,,,0.00,Wunderground v.1.15,2013-05-20 00:54:00,
2013-05-19 18:59:00,62.7,28.2,29.65,North,351,12.0,14.0,27,0.00,,,0.00,Wunderground v.1.15,2013-05-20 00:59:00,
2013-05-19 19:04:00,62.6,28.1,29.65,NNW,338,6.0,10.0,27,0.00,,,0.00,Wunderground v.1.15,2013-05-20 01:04:00,
2013-05-19 19:09:00,62.4,27.9,29.65,NNW,341,6.0,10.0,27,0.00,,,0.00,Wunderground v.1.15,2013-05-20 01:09:00,
2013-05-19 19:15:00,62.3,26.9,29.65,NW,319,8.0,19.0,26,0.00,,,0.00,Wunderground v.1.15,2013-05-20 01:15:00,
2013-05-19 19:19:00,62.3,27.9,29.65,NNW,337,6.0,19.0,27,0.00,,,0.00,Wunderground v.1.15,2013-05-20 01:19:00,
2013-05-19 19:25:00,62.1,27.7,29.65,NNW,332,9.0,14.0,27,0.00,,,0.00,Wunderground v.1.15,2013-05-20 01:25:00,
2013-05-19 19:30:00,62.0,27.6,29.66,NW,326,11.0,14.0,27,0.00,,,0.00,Wunderground v.1.15,2013-05-20 01:30:00,
2013-05-19 19:35:00,61.8,28.3,29.66,NW,309,6.0,13.0,28,0.00,,,0.00,Wunderground v.1.15,2013-05-20 01:35:00,
2013-05-19 19:40:00,61.6,28.1,29.66,NW,325,6.0,8.0,28,0.00,,,0.00,Wunderground v.1.15,2013-05-20 01:40:00,
2013-05-19 19:45:00,61.5,28.1,29.67,NW,315,2.0,10.0,28,0.00,,,0.00,Wunderground v.1.15,2013-05-20 01:45:00,
2013-05-19 19:50:00,61.2,27.8,29.67,NW,321,10.0,12.0,28,0.00,,,0.00,Wunderground v.1.15,2013-05-20 01:50:00,
2013-05-19 19:55:00,61.0,27.6,29.67,NW,325,5.0,12.0,28,0.00,,,0.00,Wunderground v.1.15,2013-05-20 01:55:00,
2013-05-19 20:00:00,60.9,27.5,29.66,NNW,331,15.0,15.0,28,0.00,,,0.00,Wunderground v.1.15,2013-05-20 02:00:00,
2013-05-19 20:05:00,60.7,27.4,29.66,NNW,329,12.0,17.0,28,0.00,,,0.00,Wunderground v.1.15,2013-05-20 02:05:00,
2013-05-19 20:10:00,60.5,28.1,29.66,WNW,290,11.0,11.0,29,0.00,,,0.00,Wunderground v.1.15,2013-05-20 02:10:00,
2013-05-19 20:15:00,60.4,28.8,29.67,NW,319,7.0,16.0,30,0.00,,,0.00,Wunderground v.1.15,2013-05-20 02:15:00,
2013-05-19 20:20:00,60.1,29.3,29.67,NNW,332,9.0,10.0,31,0.00,,,0.00,Wunderground v.1.15,2013-05-20 02:20:00,
2013-05-19 20:25:00,59.6,29.7,29.67,NNW,341,6.0,10.0,32,0.00,,,0.00,Wunderground v.1.15,2013-05-20 02:25:00,
2013-05-19 20:30:00,59.2,30.8,29.67,North,11,10.0,10.0,34,0.00,,,0.00,Wunderground v.1.15,2013-05-20 02:30:00,
2013-05-19 20:35:00,59.0,29.9,29.67,NNW,344,8.0,16.0,33,0.00,,,0.00,Wunderground v.1.15,2013-05-20 02:35:00,
2013-05-19 20:40:00,58.9,30.6,29.67,NNW,345,9.0,10.0,34,0.00,,,0.00,Wunderground v.1.15,2013-05-20 02:40:00,
2013-05-19 20:45:00,58.6,30.3,29.68,NNW,339,12.0,16.0,34,0.00,,,0.00,Wunderground v.1.15,2013-05-20 02:45:00,
2013-05-19 20:50:00,58.4,30.1,29.68,NNW,342,6.0,10.0,34,0.00,,,0.00,Wunderground v.1.15,2013-05-20 02:50:00,
2013-05-19 20:55:00,58.3,30.0,29.68,NNW,339,9.0,12.0,34,0.00,,,0.00,Wunderground v.1.15,2013-05-20 02:55:00,
2013-05-19 21:00:00,58.1,30.6,29.67,NNW,327,6.0,7.0,35,0.00,,,0.00,Wunderground v.1.15,2013-05-20 03:00:00,
2013-05-19 21:05:00,57.8,30.3,29.67,NNW,344,6.0,12.0,35,0.00,,,0.00,Wunderground v.1.15,2013-05-20 03:05:00,
2013-05-19 21:10:00,57.6,30.8,29.67,North,350,7.0,8.0,36,0.00,,,0.00,Wunderground v.1.15,2013-05-20 03:10:00,
2013-05-19 21:15:00,57.5,31.4,29.67,NNW,340,11.0,12.0,37,0.00,,,0.00,Wunderground v.1.15,2013-05-20 03:15:00,
2013-05-19 21:20:00,57.5,31.4,29.67,North,350,11.0,11.0,37,0.00,,,0.00,Wunderground v.1.15,2013-05-20 03:20:00,
2013-05-19 21:25:00,57.3,31.9,29.70,NNW,344,6.0,11.0,38,0.00,,,0.00,Wunderground v.1.15,2013-05-20 03:25:00,
2013-05-19 21:30:00,57.2,31.8,29.70,NNW,333,12.0,12.0,38,0.00,,,0.00,Wunderground v.1.15,2013-05-20 03:30:00,
2013-05-19 21:35:00,56.9,32.2,29.70,NNW,338,7.0,12.0,39,0.00,,,0.00,Wunderground v.1.15,2013-05-20 03:35:00,
2013-05-19 21:40:00,56.7,32.0,29.69,NNW,346,10.0,11.0,39,0.00,,,0.00,Wunderground v.1.15,2013-05-20 03:40:00,
2013-05-19 21:45:00,56.7,32.0,29.69,North,355,7.0,13.0,39,0.00,,,0.00,Wunderground v.1.15,2013-05-20 03:45:00,
2013-05-19 21:50:00,56.7,32.6,29.69,North,360,9.0,11.0,40,0.00,,,0.00,Wunderground v.1.15,2013-05-20 03:50:00,
2013-05-19 21:55:00,56.6,32.5,29.68,North,5,9.0,12.0,40,0.00,,,0.00,Wunderground v.1.15,2013-05-20 03:55:00,
2013-05-19 22:00:00,56.2,33.4,29.68,North,5,3.0,6.0,42,0.00,,,0.00,Wunderground v.1.15,2013-05-20 04:00:00,
2013-05-19 22:01:00,56.2,33.4,29.68,North,5,3.0,6.0,42,0.00,,,0.00,Wunderground v.1.15,2013-05-20 04:01:00,
2013-05-19 22:06:00,55.4,33.8,29.68,North,5,4.0,6.0,44,0.00,,,0.00,Wunderground v.1.15,2013-05-20 04:06:00,
2013-05-19 22:11:00,54.8,34.4,29.69,North,5,7.0,9.0,46,0.00,,,0.00,Wunderground v.1.15,2013-05-20 04:11:00,
2013-05-19 22:17:00,54.4,34.6,29.69,North,360,7.0,9.0,47,0.00,,,0.00,Wunderground v.1.15,2013-05-20 04:17:00,
2013-05-19 22:22:00,54.1,34.8,29.69,North,355,10.0,13.0,48,0.00,,,0.00,Wunderground v.1.15,2013-05-20 04:22:00,
2013-05-19 22:27:00,54.2,34.9,29.69,North,355,6.0,13.0,48,0.00,,,0.00,Wunderground v.1.15,2013-05-20 04:27:00,
2013-05-19 22:32:00,54.4,34.6,29.69,North,355,13.0,17.0,47,0.00,,,0.00,Wunderground v.1.15,2013-05-20 04:32:00,
2013-05-19 22:37:00,54.8,34.9,29.69,North,350,9.0,17.0,47,0.00,,,0.00,Wunderground v.1.15,2013-05-20 04:37:00,
2013-05-19 22:42:00,55.0,35.1,29.69,North,349,5.0,10.0,47,0.00,,,0.00,Wunderground v.1.15,2013-05-20 04:42:00,
2013-05-19 22:47:00,55.0,35.1,29.69,NNW,347,9.0,11.0,47,0.00,,,0.00,Wunderground v.1.15,2013-05-20 04:47:00,
2013-05-19 22:52:00,55.0,35.7,29.69,North,350,9.0,10.0,48,0.00,,,0.00,Wunderground v.1.15,2013-05-20 04:52:00,
2013-05-19 22:57:00,55.0,35.1,29.70,North,355,10.0,12.0,47,0.00,,,0.00,Wunderground v.1.15,2013-05-20 04:57:00,
2013-05-19 23:02:00,55.0,35.1,29.70,North,351,10.0,13.0,47,0.00,,,0.00,Wunderground v.1.15,2013-05-20 05:02:00,
2013-05-19 23:07:00,55.0,34.6,29.70,North,355,12.0,14.0,46,0.00,,,0.00,Wunderground v.1.15,2013-05-20 05:07:00,
2013-05-19 23:12:00,55.3,33.7,29.68,North,355,10.0,10.0,44,0.00,,,0.00,Wunderground v.1.15,2013-05-20 05:12:00,
2013-05-19 23:17:00,55.6,34.0,29.68,North,355,6.0,13.0,44,0.00,,,0.00,Wunderground v.1.15,2013-05-20 05:17:00,
2013-05-19 23:22:00,55.9,33.7,29.68,North,350,9.0,14.0,43,0.00,,,0.00,Wunderground v.1.15,2013-05-20 05:22:00,
2013-05-19 23:27:00,56.2,33.4,29.68,North,355,9.0,14.0,42,0.00,,,0.00,Wunderground v.1.15,2013-05-20 05:27:00,
2013-05-19 23:32:00,56.2,34.0,29.68,North,360,15.0,15.0,43,0.00,,,0.00,Wunderground v.1.15,2013-05-20 05:32:00,
2013-05-19 23:37:00,56.0,33.8,29.68,North,355,7.0,15.0,43,0.00,,,0.00,Wunderground v.1.15,2013-05-20 05:37:00,
2013-05-19 23:42:00,55.7,34.7,29.68,NNW,348,8.0,12.0,45,0.00,,,0.00,Wunderground v.1.15,2013-05-20 05:42:00,
2013-05-19 23:47:00,55.6,34.0,29.68,NNW,342,11.0,14.0,44,0.00,,,0.00,Wunderground v.1.15,2013-05-20 05:47:00,
2013-05-19 23:52:00,55.7,32.3,29.68,NNW,329,10.0,15.0,41,0.00,,,0.00,Wunderground v.1.15,2013-05-20 05:52:00,
2013-05-19 23:57:00,56.2,32.2,29.69,NNW,328,10.0,15.0,40,0.00,,,0.00,Wunderground v.1.15,2013-05-20 05:57:00,